This is the latest recevied weather packets stored in our database for station/object SP8AQK-13. If no packets are shown the sender has not sent any weather packets the latest 10 day(s).
| Time | Temp. | Humidity | Pressure | Rain* | Wind** | Luminosity | Snow |
|---|---|---|---|---|---|---|---|
| 1777925033 | 14.44° C | 52% | 1014.9 hPa | - | - | - | - |
| 1777923833 | 15.56° C | 48% | 1014.8 hPa | - | - | - | - |
| 1777922632 | 16.11° C | 45% | 1014.9 hPa | - | - | - | - |
| 1777919030 | 17.78° C | 44% | 1014.4 hPa | - | - | - | - |
| 1777917829 | 18.33° C | 43% | 1014.2 hPa | - | - | - | - |
| 1777915428 | 20.56° C | 42% | 1013.8 hPa | - | - | - | - |
| 1777914227 | 22.78° C | 34% | 1013.6 hPa | - | - | - | - |
| 1777910625 | 25° C | 29% | 1013.3 hPa | - | - | - | - |
| 1777908223 | 25° C | 27% | 1013.5 hPa | - | - | - | - |
| 1777907022 | 25.56° C | 27% | 1013.6 hPa | - | - | - | - |
| 1777905822 | 26.11° C | 26% | 1013.8 hPa | - | - | - | - |
| 1777904621 | 26.11° C | 25% | 1013.9 hPa | - | - | - | - |
| 1777903420 | 27.22° C | 24% | 1014 hPa | - | - | - | - |
| 1777901019 | 27.78° C | 24% | 1014.2 hPa | - | - | - | - |
| 1777899818 | 28.33° C | 21% | 1014.4 hPa | - | - | - | - |
| 1777897416 | 27.78° C | 21% | 1014.8 hPa | - | - | - | - |
| 1777896216 | 27.78° C | 22% | 1015.1 hPa | - | - | - | - |
| 1777893814 | 27.22° C | 24% | 1015.5 hPa | - | - | - | - |
| 1777892614 | 27.78° C | 25% | 1015.7 hPa | - | - | - | - |
| 1777891413 | 26.67° C | 26% | 1015.9 hPa | - | - | - | - |
| 1777890212 | 26.11° C | 26% | 1016.3 hPa | - | - | - | - |
| 1777889011 | 26.11° C | 29% | 1016.6 hPa | - | - | - | - |
| 1777886610 | 26.11° C | 30% | 1017 hPa | - | - | - | - |
| 1777883008 | 24.44° C | 30% | 1017.5 hPa | - | - | - | - |
| 1777881807 | 23.33° C | 32% | 1017.8 hPa | - | - | - | - |
* Rain since midnight (hover to see other rain measurements)
** Current wind speed in m/s (hover to see current wind gust speed)